MM0ZFG-5 Weather Reports


time (UTC)temp
C
wind
direction
speed
KPH
gust
KPH
rain 1hr
cm
rain 24hr
cm
rain mn
cm
humidity
%
barometer
mb
20260508030004 7 289 1.6 6.4 0.00 0.10 0.00 92 1009.1
20260508025403 7 323 1.6 6.4 0.00 0.10 0.00 91 1008.9
20260508024504 7 333 1.6 4.8 0.00 0.10 0.00 92 1008.8
20260508023603 7 338 1.6 4.8 0.00 0.10 0.00 92 1008.6
20260508022703 8 253 0.0 1.6 0.00 0.10 0.00 93 1008.9
20260508021824 7 231 1.6 4.8 0.00 0.10 0.00 93 1008.8
20260508020903 7 227 1.6 4.8 0.00 0.10 0.00 93 1008.9
20260508020004 8 212 1.6 3.2 0.00 0.10 0.00 93 1008.6
20260508015403 8 228 1.6 6.4 0.00 0.10 0.00 93 1008.7
20260508014504 8 231 1.6 6.4 0.00 0.10 0.00 93 1008.6
20260508013604 8 244 0.0 4.8 0.00 0.10 0.00 93 1008.8
20260508012704 8 240 1.6 6.4 0.00 0.10 0.00 93 1008.7
20260508011803 8 232 3.2 9.7 0.00 0.10 0.00 93 1008.5
20260508010903 8 220 4.8 12.9 0.00 0.10 0.00 93 1008.5
20260508010003 8 218 4.8 11.3 0.00 0.10 0.00 94 1008.5
20260508005424 8 224 4.8 11.3 0.00 0.10 0.00 94 1008.4
20260508004503 8 215 4.8 11.3 0.00 0.10 0.00 94 1008.3
20260508003605 8 229 4.8 9.7 0.00 0.10 0.00 94 1008.3
20260508002703 8 219 6.4 11.3 0.00 0.10 0.00 94 1008.3
20260508001804 8 220 6.4 12.9 0.00 0.10 0.00 94 1008.4
20260508000904 8 219 4.8 11.3 0.00 0.10 0.00 94 1008.4
20260508000004 8 207 3.2 4.8 0.00 0.10 0.00 93 1008.4
20260507235426 8 202 4.8 4.8 0.00 0.10 0.00 93 1008.3
20260507234505 8 199 4.8 6.4 0.00 0.10 0.00 93 1008.3
20260507233603 8 203 6.4 11.3 0.00 0.10 0.00 93 1008.3
20260507232705 8 229 8.0 12.9 0.03 0.10 0.00 94 1008.2
20260507231803 8 222 8.0 16.1 0.03 0.10 0.00 93 1008.2
20260507230904 8 205 8.0 14.5 0.08 0.10 0.00 92 1008.4
20260507230004 8 200 8.0 11.3 0.10 0.10 0.00 92 1008.2
20260507225425 8 200 6.4 11.3 0.10 0.10 0.10 92 1008.1
20260507224504 8 204 8.0 12.9 0.10 0.10 0.10 92 1008.0
20260507223604 8 204 9.7 17.7 0.10 0.10 0.10 93 1008.0
20260507222704 8 213 14.5 24.1 0.08 0.08 0.08 92 1008.1
20260507221805 8 225 14.5 24.1 0.08 0.08 0.08 92 1008.1
20260507220903 8 218 11.3 20.9 0.03 0.03 0.03 90 1008.1
20260507220025 8 206 11.3 20.9 0.00 0.00 0.03 90 1007.9
20260507215404 8 211 9.7 17.7 0.00 0.00 0.00 89 1007.9
20260507214504 8 213 11.3 22.5 0.00 0.00 0.00 89 1007.9
20260507213603 8 209 8.0 16.1 0.00 0.00 0.00 89 1007.9
20260507212703 8 222 9.7 16.1 0.00 0.00 0.00 89 1007.8
20260507211803 8 217 11.3 17.7 0.00 0.00 0.00 89 1007.7
20260507210903 8 216 11.3 17.7 0.00 0.00 0.00 90 1008.0
20260507210004 8 212 11.3 20.9 0.00 0.00 0.00 90 1007.9
20260507205424 8 211 11.3 22.5 0.00 0.00 0.00 90 1007.9
20260507204504 8 215 11.3 22.5 0.00 0.00 0.00 90 1007.8
20260507203605 8 204 9.7 16.1 0.00 0.00 0.00 89 1007.7
20260507202703 8 207 12.9 20.9 0.00 0.00 0.00 89 1007.9
20260507201805 8 201 12.9 27.4 0.00 0.00 0.00 88 1007.7
20260507200904 8 211 16.1 27.4 0.00 0.00 0.00 88 1007.7
20260507200027 9 217 16.1 27.4 0.00 0.00 0.00 88 1007.6
20260507195403 9 220 14.5 24.1 0.00 0.00 0.00 87 1007.6
20260507194503 9 225 12.9 24.1 0.00 0.00 0.00 85 1007.4
20260507193603 9 213 14.5 24.1 0.00 0.00 0.00 85 1007.5
20260507192726 9 221 16.1 25.7 0.00 0.00 0.00 84 1007.5
20260507191804 9 217 14.5 24.1 0.00 0.00 0.00 83 1007.4
20260507190903 9 222 14.5 22.5 0.00 0.00 0.00 82 1007.2
20260507190005 9 217 12.9 24.1 0.00 0.00 0.00 82 1007.3
20260507185403 9 211 14.5 24.1 0.00 0.00 0.00 81 1007.3
20260507184504 9 213 14.5 22.5 0.00 0.00 0.00 81 1007.2
20260507183604 10 211 14.5 27.4 0.00 0.00 0.00 80 1007.2
20260507182705 10 207 12.9 22.5 0.00 0.00 0.00 78 1007.5
20260507181803 10 207 14.5 24.1 0.00 0.00 0.00 75 1007.3
20260507180925 10 206 12.9 20.9 0.00 0.00 0.00 73 1007.3
20260507180004 11 208 12.9 22.5 0.00 0.00 0.00 70 1007.2
20260507175404 11 203 11.3 20.9 0.00 0.00 0.00 69 1007.3
20260507174504 11 198 9.7 14.5 0.00 0.00 0.00 71 1007.1
20260507173603 11 196 11.3 24.1 0.00 0.00 0.00 71 1007.5
20260507172703 11 211 12.9 24.1 0.00 0.00 0.00 70 1007.3
20260507171804 11 221 12.9 22.5 0.00 0.00 0.00 70 1007.5
20260507170925 11 220 12.9 24.1 0.00 0.00 0.00 70 1007.4
20260507170005 10 221 14.5 24.1 0.00 0.00 0.00 73 1007.4
20260507165403 10 213 14.5 24.1 0.00 0.00 0.00 71 1007.4
20260507164503 11 206 16.1 25.7 0.00 0.00 0.00 69 1007.4
20260507163603 12 210 16.1 29.0 0.00 0.00 0.00 63 1007.4
20260507162703 12 185 16.1 27.4 0.00 0.00 0.00 61 1007.4
20260507161803 13 207 16.1 30.6 0.00 0.00 0.00 62 1007.4
20260507160903 12 215 14.5 30.6 0.00 0.00 0.00 64 1007.3
20260507160004 12 210 14.5 24.1 0.00 0.00 0.00 66 1007.5
20260507155424 11 198 14.5 29.0 0.00 0.00 0.00 66 1007.4
20260507154504 11 195 14.5 24.1 0.00 0.00 0.00 68 1007.5
20260507153603 11 194 16.1 22.5 0.00 0.00 0.00 67 1007.4
20260507152704 12 197 16.1 27.4 0.00 0.00 0.00 66 1007.2
20260507151824 12 203 16.1 27.4 0.00 0.00 0.00 66 1007.4
20260507150903 12 205 16.1 27.4 0.00 0.00 0.00 65 1007.4
20260507150024 12 199 17.7 29.0 0.00 0.00 0.00 64 1007.5
20260507145424 13 202 16.1 29.0 0.00 0.00 0.00 63 1007.4
20260507144504 13 208 16.1 30.6 0.00 0.00 0.00 64 1007.5
20260507143625 14 197 14.5 22.5 0.00 0.00 0.00 63 1007.5
20260507142704 14 216 14.5 24.1 0.00 0.00 0.00 63 1007.6
20260507141803 14 185 12.9 24.1 0.00 0.00 0.00 63 1007.6
20260507140905 15 191 12.9 17.7 0.00 0.00 0.00 63 1007.6
20260507140006 15 189 12.9 20.9 0.00 0.00 0.00 61 1007.5
20260507135403 15 194 14.5 20.9 0.00 0.00 0.00 60 1007.6
20260507134504 14 198 14.5 24.1 0.00 0.00 0.00 63 1007.6
20260507133604 14 214 12.9 22.5 0.00 0.00 0.00 64 1007.8
20260507132725 14 205 12.9 22.5 0.00 0.00 0.00 65 1007.9
20260507131803 14 201 14.5 29.0 0.00 0.00 0.00 66 1007.9
20260507130903 14 200 14.5 29.0 0.00 0.00 0.00 65 1007.9
20260507130004 14 203 12.9 24.1 0.00 0.00 0.00 64 1008.1
20260507125424 15 204 12.9 20.9 0.00 0.00 0.00 64 1008.1
20260507124503 14 199 14.5 22.5 0.00 0.00 0.00 64 1008.1
20260507123603 14 207 12.9 20.9 0.00 0.00 0.00 64 1008.0
20260507122724 13 201 12.9 30.6 0.00 0.00 0.00 65 1007.9
20260507121805 13 192 14.5 30.6 0.00 0.00 0.00 65 1008.2
20260507120924 12 195 14.5 25.7 0.00 0.00 0.00 62 1008.0
20260507120025 13 207 14.5 22.5 0.00 0.00 0.00 64 1008.0
20260507115404 12 204 14.5 24.1 0.00 0.00 0.00 68 1008.2
20260507114503 12 191 12.9 22.5 0.00 0.00 0.00 72 1008.3
20260507113604 11 180 9.7 16.1 0.00 0.00 0.00 75 1008.3
20260507112704 10 185 11.3 17.7 0.00 0.00 0.00 77 1008.2
20260507111804 10 193 11.3 22.5 0.00 0.00 0.00 78 1008.3
20260507110903 10 195 11.3 16.1 0.00 0.00 0.00 80 1008.3
20260507110003 10 180 11.3 17.7 0.00 0.00 0.00 78 1008.3
20260507105403 10 183 11.3 17.7 0.00 0.00 0.00 79 1008.3
20260507104526 10 190 11.3 17.7 0.00 0.00 0.00 79 1008.3
20260507103603 10 209 12.9 20.9 0.00 0.00 0.00 80 1008.3
20260507102703 10 188 9.7 16.1 0.00 0.00 0.00 82 1008.3
20260507101825 10 188 9.7 17.7 0.00 0.00 0.00 82 1008.1
20260507100925 10 182 9.7 16.1 0.00 0.00 0.00 83 1008.2
20260507100005 9 197 9.7 14.5 0.00 0.00 0.00 85 1008.3
20260507095404 9 184 11.3 14.5 0.00 0.00 0.00 85 1008.3
20260507094505 9 189 9.7 20.9 0.00 0.00 0.00 86 1008.1
20260507093603 8 190 8.0 14.5 0.00 0.00 0.00 87 1008.2
20260507092703 8 174 6.4 12.9 0.00 0.00 0.00 87 1008.1
20260507091803 8 186 6.4 12.9 0.00 0.00 0.00 87 1008.1
20260507090904 8 179 4.8 11.3 0.00 0.00 0.00 86 1008.2
20260507090004 8 182 6.4 11.3 0.00 0.00 0.00 85 1008.2
20260507085403 8 192 6.4 12.9 0.00 0.00 0.00 84 1008.2
20260507084504 8 195 4.8 11.3 0.00 0.00 0.00 83 1008.3
20260507083603 7 189 4.8 12.9 0.00 0.00 0.00 83 1008.4
20260507082703 7 185 3.2 6.4 0.00 0.00 0.00 83 1008.3
20260507081804 7 88 4.8 9.7 0.00 0.00 0.00 82 1008.2
20260507080924 7 88 6.4 20.9 0.00 0.00 0.00 81 1008.5
20260507080004 7 80 3.2 11.3 0.00 0.00 0.00 81 1008.2
20260507075403 7 79 3.2 11.3 0.00 0.00 0.00 80 1008.5
20260507074503 7 91 3.2 11.3 0.00 0.00 0.00 81 1008.5
20260507073603 7 94 4.8 12.9 0.00 0.00 0.00 81 1008.4
20260507072724 7 76 6.4 16.1 0.00 0.00 0.00 80 1008.4
20260507071805 7 69 6.4 20.9 0.00 0.00 0.00 80 1008.5
20260507070903 7 96 3.2 9.7 0.00 0.00 0.00 80 1008.3
20260507070005 7 82 4.8 16.1 0.00 0.00 0.00 80 1008.4
20260507065405 7 75 4.8 16.1 0.00 0.00 0.00 79 1008.4
20260507064503 7 87 3.2 6.4 0.00 0.00 0.00 80 1008.5
20260507063603 7 90 3.2 9.7 0.00 0.00 0.00 80 1008.5
20260507062703 7 82 3.2 11.3 0.00 0.00 0.00 79 1008.7
20260507061803 7 79 4.8 11.3 0.00 0.00 0.00 79 1008.6
20260507060903 7 83 4.8 11.3 0.00 0.00 0.00 79 1008.5
20260507060003 7 89 3.2 11.3 0.00 0.00 0.00 79 1008.6
20260507055403 7 87 3.2 9.7 0.00 0.00 0.00 79 1008.6
20260507054503 6 103 3.2 9.7 0.00 0.00 0.00 79 1008.6
20260507053603 6 83 3.2 9.7 0.00 0.00 0.00 79 1008.4
20260507052703 6 69 3.2 11.3 0.00 0.00 0.00 78 1008.5
20260507051804 6 67 4.8 12.9 0.00 0.00 0.00 78 1008.5
20260507050903 6 68 4.8 12.9 0.00 0.00 0.00 78 1008.7
20260507050005 6 64 4.8 11.3 0.00 0.00 0.00 78 1008.6
20260507045404 6 63 3.2 9.7 0.00 0.00 0.00 78 1008.6
20260507044503 6 73 3.2 9.7 0.00 0.00 0.00 77 1008.6
20260507043603 6 63 4.8 11.3 0.00 0.00 0.00 77 1008.7
20260507042704 6 65 3.2 11.3 0.00 0.00 0.00 76 1008.7
20260507041804 6 51 3.2 6.4 0.00 0.00 0.00 76 1008.6
20260507040925 6 53 4.8 11.3 0.00 0.00 0.00 76 1008.9
20260507040004 6 61 4.8 11.3 0.00 0.00 0.00 75 1008.7
20260507035425 6 66 6.4 14.5 0.00 0.00 0.00 75 1008.6
20260507034503 6 47 4.8 11.3 0.00 0.00 0.00 74 1008.5
20260507033604 6 77 4.8 12.9 0.00 0.00 0.00 74 1008.9
20260507032703 6 78 4.8 12.9 0.00 0.00 0.00 74 1008.8
20260507031826 6 67 6.4 16.1 0.00 0.00 0.00 74 1008.8
20260507030904 6 81 4.8 12.9 0.00 0.00 0.00 73 1008.8